sat.trackr.live / text

‹ back to catalog

STARLINK-3579

NORAD 51893 · 2022-022AT

PAYLOAD ACTIVE UNKNOWN

§ Identity

Operator
Country
US
Launch date
2022-03-03
Launch site
AFETR
Launch vehicle
Mass (kg)
RCS (m²)

Purposes: comms

External: N2YO · Heavens-Above · Gunter

§ Orbital elements

Epoch: 2026-09-19T11:55:02.593920Z

Period
95.24 min
Inclination
53.2145°
Eccentricity
0.0001747
Mean motion
15.11964533 rev/d
Perigee alt
529.0 km
Apogee alt
531.4 km
Semi-major
6,908.3 km
B*
7.2894e-4
RAAN
207.7715°
Arg perigee
60.6476°
Mean anomaly
299.4692°
Rev number
25,258

§ Raw data

STARLINK-35791 51893U 22022AT  26262.49655780  .00012371  00000+0  72894-3 0  99922 51893  53.2145 207.7715 0001747  60.6476 299.4692 15.11964533252586

JSON: /api/v1/satellites/51893 · /tle

For live sub-satellite position, see the globe view (requires WebGL).

§ Visibility from observer

Set your observer location to see the next 7 days of passes ≥ 10°. The values pass through the URL so the page stays shareable.

No JS? Fill the form by hand. The geolocation button needs JavaScript.